DL2JNL Weather Reports


time (UTC)temp
C
wind
direction
speed
KPH
gust
KPH
rain 1hr
cm
rain 24hr
cm
rain mn
cm
humidity
%
barometer
mb
20260507060042 6 321 0.0 8.0 0.00 0.20 0.00 92 1013.1
20260507055543 6 46 3.2 8.0 0.00 0.28 0.00 92 1013.2
20260507055043 6 44 0.0 3.2 0.00 0.28 0.00 92 1013.0
20260507054550 6 0 0.0 3.2 0.00 0.28 0.00 92 1013.0
20260507054045 6 323 0.0 3.2 0.00 0.28 0.00 92 1012.9
20260507053542 6 0 0.0 1.6 0.00 0.28 0.00 93 1012.9
20260507053047 6 288 0.0 3.2 0.00 0.28 0.00 93 1012.8
20260507052544 6 41 0.0 6.4 0.00 0.28 0.00 92 1012.8
20260507052041 6 0 0.0 6.4 0.00 0.28 0.00 93 1012.7
20260507051553 6 327 0.0 6.4 0.00 0.28 0.00 93 1012.7
20260507051041 6 0 0.0 6.4 0.00 0.28 0.00 93 1012.6
20260507050538 6 355 0.0 6.4 0.00 0.28 0.00 93 1012.5
20260507050050 6 343 0.0 3.2 0.00 0.28 0.00 93 1012.4
20260507045542 6 333 0.0 3.2 0.00 0.30 0.00 93 1012.3
20260507045039 6 287 0.0 4.8 0.00 0.30 0.00 93 1012.4
20260507044604 6 0 0.0 4.8 0.00 0.30 0.00 93 1012.4
20260507044039 6 0 0.0 4.8 0.00 0.30 0.00 93 1012.3
20260507043541 6 354 0.0 4.8 0.00 0.30 0.00 93 1012.2
20260507043102 6 0 0.0 6.4 0.00 0.30 0.00 93 1012.1
20260507042542 6 342 0.0 6.4 0.00 0.30 0.00 93 1012.1
20260507042046 6 324 0.0 3.2 0.00 0.30 0.00 93 1012.2
20260507041556 6 0 0.0 3.2 0.00 0.30 0.00 93 1012.0
20260507041042 6 0 0.0 3.2 0.00 0.30 0.00 93 1012.1
20260507040541 6 0 0.0 3.2 0.00 0.30 0.00 93 1011.9
20260507040051 6 0 0.0 1.6 0.00 0.30 0.00 93 1012.0
20260507035541 6 0 0.0 1.6 0.00 0.36 0.00 93 1012.0
20260507035039 6 0 0.0 1.6 0.00 0.36 0.00 93 1011.8
20260507034553 6 0 0.0 1.6 0.00 0.36 0.00 93 1011.9
20260507034040 6 0 0.0 3.2 0.00 0.36 0.00 93 1011.9
20260507033539 6 0 0.0 3.2 0.00 0.36 0.00 93 1011.7
20260507033044 6 0 0.0 1.6 0.00 0.36 0.00 93 1011.8
20260507032545 6 356 0.0 1.6 0.00 0.36 0.00 93 1011.8
20260507032042 6 322 0.0 1.6 0.00 0.36 0.00 93 1011.9
20260507031550 6 0 0.0 1.6 0.00 0.36 0.00 93 1011.8
20260507031041 6 0 0.0 1.6 0.00 0.36 0.00 93 1011.7
20260507030541 6 304 0.0 1.6 0.00 0.36 0.00 93 1011.7
20260507030051 6 321 0.0 1.6 0.00 0.36 0.00 93 1011.8
20260507025538 6 0 0.0 1.6 0.00 0.36 0.00 93 1011.7
20260507025040 6 0 0.0 1.6 0.00 0.36 0.00 93 1011.7
20260507024553 6 0 0.0 1.6 0.00 0.36 0.00 93 1011.6
20260507024041 6 0 0.0 1.6 0.00 0.36 0.00 93 1011.7
20260507023541 6 345 0.0 1.6 0.00 0.36 0.00 92 1011.6
20260507023057 6 0 0.0 1.6 0.00 0.36 0.00 92 1011.7
20260507022541 6 0 0.0 1.6 0.00 0.36 0.00 92 1011.7
20260507022124 6 0 0.0 1.6 0.00 0.36 0.00 92 1011.6
20260507021549 6 355 0.0 4.8 0.00 0.36 0.00 92 1011.7
20260507021041 6 0 0.0 4.8 0.00 0.36 0.00 92 1011.6
20260507020542 6 0 0.0 4.8 0.00 0.36 0.00 92 1011.5
20260507020056 6 0 0.0 1.6 0.00 0.36 0.00 92 1011.4
20260507015538 6 0 0.0 3.2 0.00 0.36 0.00 92 1011.3
20260507015038 6 343 0.0 3.2 0.00 0.36 0.00 92 1011.4
20260507014546 6 0 0.0 3.2 0.00 0.36 0.00 92 1011.4
20260507014038 6 0 0.0 3.2 0.00 0.36 0.00 92 1011.1
20260507013538 6 0 0.0 4.8 0.00 0.36 0.00 92 1011.2
20260507013046 6 0 0.0 4.8 0.00 0.36 0.00 92 1011.2
20260507012546 6 1 0.0 4.8 0.00 0.36 0.00 92 1011.2
20260507012038 6 15 0.0 4.8 0.00 0.36 0.00 92 1011.2
20260507011548 6 349 0.0 3.2 0.00 0.36 0.00 92 1011.2
20260507011042 6 37 0.0 3.2 0.00 0.36 0.00 92 1011.2
20260507010542 6 0 0.0 4.8 0.00 0.36 0.00 92 1011.0
20260507010047 6 330 0.0 4.8 0.00 0.36 0.00 92 1010.9
20260507005542 6 0 0.0 4.8 0.00 0.43 0.00 92 1011.0
20260507005041 6 278 0.0 4.8 0.00 0.43 0.00 92 1010.8
20260507004548 6 0 0.0 3.2 0.00 0.43 0.00 92 1010.9
20260507004041 6 349 0.0 3.2 0.00 0.43 0.00 92 1010.9
20260507003541 6 0 0.0 3.2 0.00 0.43 0.00 92 1011.0
20260507003056 6 0 0.0 4.8 0.00 0.43 0.00 92 1010.9
20260507002540 6 349 0.0 4.8 0.00 0.43 0.00 92 1010.8
20260507002042 6 0 0.0 4.8 0.00 0.43 0.00 92 1010.8
20260507001610 6 0 0.0 1.6 0.00 0.43 0.00 92 1010.8
20260507001042 6 0 0.0 1.6 0.00 0.43 0.00 92 1010.8
20260507000545 6 0 0.0 1.6 0.00 0.43 0.00 92 1010.7
20260507000051 6 359 0.0 1.6 0.00 0.43 0.00 92 1010.8
20260506235543 6 0 0.0 1.6 0.00 0.51 0.00 91 1010.7
20260506235042 6 0 0.0 1.6 0.00 0.51 0.00 92 1010.7
20260506234555 6 0 0.0 3.2 0.00 0.51 0.00 92 1010.8
20260506234043 6 0 0.0 4.8 0.00 0.51 0.00 92 1010.8
20260506233544 6 342 0.0 4.8 0.00 0.51 0.00 92 1010.7
20260506233058 6 339 0.0 1.6 0.00 0.51 0.00 92 1010.9
20260506232543 6 37 0.0 1.6 0.00 0.51 0.00 92 1010.7
20260506232042 6 13 0.0 1.6 0.00 0.51 0.00 92 1010.7
20260506231604 6 0 0.0 1.6 0.00 0.51 0.00 92 1010.5
20260506231044 6 264 0.0 1.6 0.00 0.51 0.00 92 1010.6
20260506230542 6 329 0.0 1.6 0.00 0.51 0.00 92 1010.7
20260506230113 6 0 0.0 1.6 0.00 0.51 0.00 92 1010.5
20260506225545 6 0 0.0 1.6 0.00 0.64 0.00 92 1010.5
20260506225043 6 0 0.0 1.6 0.00 0.64 0.00 92 1010.7
20260506224549 6 0 0.0 3.2 0.00 0.64 0.00 92 1010.5
20260506224042 6 354 0.0 3.2 0.00 0.64 0.00 92 1010.4
20260506223546 6 0 0.0 3.2 0.00 0.64 0.00 92 1010.3
20260506223103 6 349 0.0 3.2 0.00 0.64 0.00 91 1010.3
20260506222541 6 353 0.0 3.2 0.00 0.64 0.00 91 1010.3
20260506222042 6 0 0.0 4.8 0.00 0.64 0.00 91 1010.2
20260506221606 6 293 0.0 4.8 0.00 0.64 0.00 91 1010.4
20260506221040 6 0 1.6 8.0 0.00 0.64 0.00 91 1010.3
20260506220541 6 9 0.0 8.0 0.00 0.64 0.00 92 1010.3
20260506220049 6 340 1.6 8.0 0.00 0.64 0.00 92 1010.4
20260506215543 6 358 1.6 8.0 0.00 0.76 0.64 92 1010.3
20260506215043 6 0 1.6 9.7 0.00 0.76 0.64 92 1010.3
20260506214554 6 0 1.6 9.7 0.00 0.76 0.64 92 1010.3
20260506214041 6 341 1.6 6.4 0.00 0.76 0.64 92 1010.3
20260506213543 7 0 0.0 6.4 0.00 0.76 0.64 92 1010.2
20260506213103 7 46 0.0 6.4 0.00 0.76 0.64 92 1010.1
20260506212541 7 0 0.0 6.4 0.00 0.76 0.64 92 1010.1
20260506212043 7 32 0.0 11.3 0.00 0.76 0.64 92 1010.2
20260506211600 7 342 1.6 11.3 0.00 0.76 0.64 92 1010.1
20260506211043 7 348 1.6 4.8 0.00 0.76 0.64 92 1010.0
20260506210543 7 354 0.0 4.8 0.00 0.76 0.64 92 1010.1
20260506210058 7 0 1.6 4.8 0.00 0.76 0.64 92 1010.1
20260506205546 7 306 0.0 6.4 0.00 0.99 0.64 92 1010.1
20260506205040 7 0 0.0 6.4 0.00 0.99 0.64 92 1010.1
20260506204550 7 353 0.0 6.4 0.00 0.99 0.64 92 1009.9
20260506204043 7 10 0.0 4.8 0.00 0.99 0.64 92 1010.0
20260506203542 7 266 0.0 6.4 0.00 0.99 0.64 92 1010.0
20260506203105 7 347 0.0 6.4 0.00 0.99 0.64 92 1010.0
20260506202544 7 0 0.0 3.2 0.00 0.99 0.64 92 1009.9
20260506202042 7 0 0.0 3.2 0.00 0.99 0.64 92 1009.8
20260506201552 7 346 0.0 4.8 0.00 0.99 0.64 92 1009.7
20260506201045 7 333 0.0 4.8 0.00 0.99 0.64 92 1009.7
20260506200548 7 0 0.0 1.6 0.00 0.99 0.64 92 1009.8
20260506200055 7 343 0.0 1.6 0.00 0.99 0.64 92 1009.6
20260506195541 7 0 0.0 1.6 0.00 1.52 0.64 92 1009.7
20260506195041 7 340 0.0 1.6 0.00 1.52 0.64 92 1009.7
20260506194550 7 0 0.0 1.6 0.00 1.52 0.64 92 1009.6
20260506194042 7 0 0.0 1.6 0.00 1.52 0.64 92 1009.5
20260506193543 7 0 0.0 1.6 0.00 1.52 0.64 92 1009.4
20260506193056 7 0 0.0 1.6 0.00 1.52 0.64 92 1009.5
20260506192542 7 0 0.0 1.6 0.00 1.52 0.64 91 1009.6
20260506192043 7 0 0.0 1.6 0.00 1.52 0.64 91 1009.3
20260506191549 7 0 0.0 1.6 0.00 1.52 0.64 92 1009.4
20260506191042 7 0 0.0 1.6 0.00 1.52 0.64 91 1009.4
20260506190543 7 0 0.0 1.6 0.00 1.52 0.64 91 1009.2
20260506190052 7 0 0.0 4.8 0.00 1.52 0.64 91 1009.2
20260506185542 7 0 0.0 4.8 0.00 2.18 0.64 91 1009.2
20260506185041 7 342 0.0 4.8 0.00 2.18 0.64 91 1009.1
20260506184550 7 329 0.0 4.8 0.00 2.18 0.64 91 1009.0
20260506184043 7 1 0.0 3.2 0.00 2.18 0.64 91 1008.9
20260506183544 7 0 0.0 3.2 0.00 2.18 0.64 91 1008.9
20260506183053 7 9 0.0 3.2 0.00 2.18 0.64 91 1008.7
20260506182541 7 0 0.0 3.2 0.00 2.18 0.64 91 1008.8
20260506182042 7 0 0.0 4.8 0.00 2.18 0.64 91 1008.8
20260506181554 7 356 0.0 4.8 0.00 2.18 0.64 91 1008.8
20260506181041 7 0 0.0 3.2 0.00 2.18 0.64 91 1008.8
20260506180545 7 1 0.0 4.8 0.00 2.18 0.64 91 1008.5
20260506180053 7 0 0.0 4.8 0.00 2.18 0.64 91 1008.6
20260506175540 7 4 1.6 6.4 0.00 2.72 0.64 91 1008.6
20260506175044 7 342 0.0 6.4 0.00 2.72 0.64 91 1008.5
20260506174544 7 287 0.0 6.4 0.00 2.72 0.64 91 1008.5
20260506174040 7 0 0.0 4.8 0.00 2.72 0.64 91 1008.5
20260506173541 7 343 0.0 4.8 0.00 2.72 0.64 91 1008.5
20260506173046 7 352 1.6 4.8 0.00 2.72 0.64 91 1008.3
20260506172541 7 0 0.0 1.6 0.00 2.72 0.64 91 1008.4
20260506172041 7 0 0.0 4.8 0.00 2.72 0.64 91 1008.2
20260506171549 8 0 0.0 4.8 0.00 2.72 0.64 91 1008.2
20260506171043 8 314 0.0 3.2 0.00 2.72 0.64 92 1008.3
20260506170541 8 0 0.0 4.8 0.00 2.72 0.64 91 1008.1
20260506170054 8 0 0.0 4.8 0.00 2.72 0.64 91 1008.1
20260506165546 8 340 0.0 1.6 0.00 3.02 0.64 92 1008.0
20260506165041 8 23 0.0 4.8 0.00 3.02 0.64 92 1007.9
20260506164606 8 0 0.0 4.8 0.00 3.02 0.64 92 1007.9
20260506164042 8 39 0.0 4.8 0.00 3.02 0.64 92 1007.9
20260506163540 8 0 0.0 4.8 0.00 3.02 0.64 91 1007.9
20260506163100 8 335 0.0 1.6 0.00 3.02 0.64 91 1007.9
20260506162545 8 0 0.0 3.2 0.00 3.02 0.64 92 1007.9
20260506162042 8 0 0.0 3.2 0.00 3.02 0.64 92 1007.8
20260506161547 8 360 0.0 4.8 0.00 3.02 0.64 91 1007.9
20260506161041 8 0 0.0 4.8 0.00 3.02 0.64 91 1007.8
20260506160542 8 0 0.0 4.8 0.00 3.02 0.64 92 1007.8
20260506160052 8 316 0.0 6.4 0.00 3.02 0.64 91 1007.8
20260506155541 8 2 0.0 6.4 0.00 3.07 0.64 92 1007.7
20260506155041 8 0 1.6 6.4 0.03 3.07 0.64 91 1007.7
20260506154554 8 2 0.0 4.8 0.03 3.07 0.64 92 1007.9
20260506154041 8 318 0.0 4.8 0.05 3.07 0.64 92 1007.7
20260506153544 8 0 0.0 4.8 0.08 3.07 0.64 92 1007.7
20260506153051 8 352 1.6 4.8 0.08 3.05 0.61 91 1007.6
20260506152542 8 15 0.0 4.8 0.08 3.05 0.61 92 1007.7
20260506152043 8 335 0.0 4.8 0.08 3.05 0.61 91 1007.6
20260506151547 8 0 0.0 4.8 0.08 3.05 0.61 91 1007.6
20260506151041 8 345 0.0 4.8 0.10 3.05 0.61 91 1007.5
20260506150544 8 359 0.0 4.8 0.10 3.05 0.61 91 1007.6
20260506150100 8 345 0.0 6.4 0.10 3.05 0.61 91 1007.5
20260506145541 8 0 0.0 6.4 0.13 3.05 0.61 91 1007.5
20260506145041 8 0 0.0 6.4 0.10 3.02 0.58 91 1007.6
20260506144550 8 351 1.6 6.4 0.10 3.02 0.58 91 1007.5
20260506144041 8 349 1.6 8.0 0.08 3.00 0.56 91 1007.5
20260506143541 8 23 0.0 9.7 0.08 2.97 0.53 91 1007.4
20260506143046 8 343 3.2 9.7 0.08 2.97 0.53 90 1007.3
20260506142540 9 356 0.0 9.7 0.05 2.95 0.51 91 1007.3
20260506142041 9 336 1.6 9.7 0.05 2.95 0.51 90 1007.3
20260506141549 9 321 1.6 8.0 0.05 2.95 0.51 90 1007.4
20260506141042 9 4 1.6 8.0 0.03 2.92 0.48 90 1007.3
20260506140542 10 37 1.6 6.4 0.03 2.92 0.48 90 1007.2
20260506140048 10 345 0.0 6.4 0.03 2.92 0.48 90 1007.2
20260506135542 10 327 0.0 4.8 0.00 2.90 0.46 90 1007.3
20260506135042 10 1 0.0 4.8 0.00 2.90 0.46 90 1007.2
20260506134544 10 349 0.0 9.7 0.00 2.90 0.46 90 1007.1
20260506134045 10 322 0.0 9.7 0.00 2.90 0.46 90 1007.1
20260506133542 10 314 0.0 9.7 0.00 2.90 0.46 90 1007.0
20260506133107 10 339 0.0 9.7 0.00 2.90 0.46 90 1007.0
20260506132541 10 15 1.6 8.0 0.00 2.90 0.46 90 1006.9
20260506132043 10 0 0.0 8.0 0.00 2.90 0.46 90 1007.0
20260506131558 10 0 0.0 6.4 0.00 2.90 0.46 90 1006.7
20260506131044 10 0 0.0 8.0 0.03 2.90 0.46 91 1006.8
20260506130541 10 352 1.6 8.0 0.03 2.90 0.46 91 1007.0
20260506130046 10 340 1.6 4.8 0.03 2.90 0.46 91 1006.8
20260506125542 10 354 0.0 8.0 0.03 2.90 0.46 91 1007.0
20260506125040 10 0 1.6 8.0 0.03 2.90 0.46 90 1006.9
20260506124548 10 330 1.6 8.0 0.03 2.90 0.46 90 1006.9
20260506124044 10 13 1.6 6.4 0.03 2.90 0.46 90 1006.8
20260506123543 10 0 0.0 8.0 0.03 2.90 0.46 90 1006.8
20260506123049 10 0 1.6 8.0 0.03 2.90 0.46 90 1006.8
20260506122542 10 264 0.0 8.0 0.00 2.87 0.43 90 1006.7
20260506122041 10 0 0.0 8.0 0.00 2.87 0.43 90 1006.8
20260506121554 10 5 0.0 6.4 0.00 2.87 0.43 89 1006.7
20260506121041 10 0 0.0 6.4 0.00 2.84 0.41 89 1006.7
20260506120541 10 0 0.0 8.0 0.00 2.84 0.41 89 1006.6
20260506120056 11 0 0.0 9.7 0.00 2.84 0.41 89 1006.5
20260506115541 11 4 1.6 9.7 0.00 2.84 0.41 89 1006.5
20260506115042 11 0 0.0 9.7 0.00 2.84 0.41 89 1006.5
20260506114550 11 0 0.0 8.0 0.00 2.84 0.41 88 1006.5
20260506114046 11 217 0.0 8.0 0.00 2.84 0.41 89 1006.4
20260506113542 11 307 0.0 9.7 0.00 2.84 0.41 88 1006.3
20260506113051 11 284 0.0 9.7 0.00 2.84 0.41 88 1006.4
20260506112545 11 350 0.0 8.0 0.00 2.84 0.41 88 1006.4
20260506112041 11 17 0.0 8.0 0.00 2.84 0.41 88 1006.3
20260506111550 11 345 1.6 8.0 0.00 2.84 0.41 87 1006.2
20260506111041 11 334 0.0 6.4 0.00 2.84 0.41 87 1006.2
20260506110541 11 304 0.0 6.4 0.00 2.84 0.41 87 1006.2
20260506110109 11 281 0.0 6.4 0.00 2.84 0.41 87 1006.2
20260506105541 11 285 0.0 8.0 0.00 2.84 0.41 86 1006.2
20260506105046 11 263 0.0 8.0 0.00 2.84 0.41 87 1006.2
20260506104603 11 297 0.0 6.4 0.00 2.84 0.41 87 1006.3
20260506104041 11 278 1.6 6.4 0.00 2.84 0.41 87 1006.2
20260506103541 11 12 1.6 6.4 0.00 2.84 0.41 87 1006.1
20260506103049 11 14 0.0 4.8 0.00 2.84 0.41 87 1006.1
20260506102544 11 0 0.0 4.8 0.00 2.84 0.41 88 1006.3
20260506102045 11 0 0.0 4.8 0.00 2.84 0.41 88 1006.2
20260506101552 11 0 0.0 4.8 0.00 2.84 0.41 88 1006.1
20260506101041 11 353 0.0 6.4 0.00 2.84 0.41 88 1006.1
20260506100543 11 0 0.0 6.4 0.00 2.84 0.41 88 1006.0
20260506100058 11 345 0.0 6.4 0.00 2.84 0.41 88 1006.0
20260506095542 11 316 0.0 4.8 0.00 2.84 0.41 88 1006.0
20260506095042 11 295 0.0 4.8 0.00 2.84 0.41 88 1005.9
20260506094600 11 0 0.0 4.8 0.00 2.84 0.41 88 1006.0
20260506094041 11 263 0.0 8.0 0.00 2.84 0.41 88 1006.0
20260506093541 11 295 0.0 11.3 0.00 2.84 0.41 89 1006.0
20260506093050 11 342 0.0 11.3 0.00 2.84 0.41 89 1006.0
20260506092541 11 340 1.6 6.4 0.00 2.84 0.41 89 1005.9
20260506092041 11 292 0.0 6.4 0.00 2.84 0.41 89 1005.8
20260506091552 11 0 0.0 1.6 0.00 2.84 0.41 90 1005.9
20260506091043 11 0 0.0 4.8 0.00 2.84 0.41 90 1005.9
20260506090540 11 0 0.0 6.4 0.00 2.84 0.41 90 1006.0
20260506090053 11 11 0.0 6.4 0.00 2.84 0.41 90 1005.9
20260506085541 11 0 0.0 6.4 0.00 2.84 0.41 90 1005.9
20260506085041 11 295 0.0 6.4 0.00 2.84 0.41 90 1005.9
20260506084614 11 0 0.0 8.0 0.00 2.84 0.41 90 1005.9
20260506084041 11 0 0.0 8.0 0.00 2.84 0.41 90 1005.7
20260506083542 11 291 0.0 8.0 0.00 2.84 0.41 90 1005.8
20260506083050 11 305 0.0 4.8 0.00 2.84 0.41 91 1005.7
20260506082543 11 249 0.0 4.8 0.00 2.84 0.41 91 1005.6
20260506082043 11 269 0.0 1.6 0.00 2.84 0.41 91 1005.4
20260506081557 11 0 0.0 1.6 0.00 2.84 0.41 92 1005.5
20260506081041 11 0 0.0 1.6 0.00 2.84 0.41 92 1005.5
20260506080541 11 0 0.0 1.6 0.00 2.84 0.41 92 1005.4
20260506073050 11 0 0.0 0.0 0.00 2.84 0.41 93 1005.4
20260506072542 11 0 0.0 0.0 0.00 2.84 0.41 94 1005.4
20260506072042 10 0 0.0 1.6 0.00 2.84 0.41 93 1005.5
20260506071549 10 0 0.0 1.6 0.00 2.84 0.41 93 1005.4
20260506071038 10 342 0.0 1.6 0.00 2.84 0.41 94 1005.3
20260506070542 10 0 0.0 1.6 0.00 2.84 0.41 94 1005.5
20260506062041 10 0 0.0 1.6 0.00 2.84 0.41 94 1005.4
20260506061555 10 0 0.0 1.6 0.03 2.84 0.41 94 1005.4
20260506061043 10 0 0.0 1.6 0.03 2.84 0.41 93 1005.4
20260506060542 10 0 0.0 1.6 0.03 2.84 0.41 94 1005.3